TB3NHM-11 Weather Reports


time (UTC)temp
F
wind
direction
speed
knots
gust
knots
rain 1hr
in
rain 24hr
in
rain mn
in
humidity
%
barometer
mb
20260507151104 77 0 0.0 0.0 0.00 0.00 0.00 29 1006.2
20260507141145 78 0 0.0 0.0 0.00 0.00 0.00 28 1006.3
20260507131235 80 0 0.0 0.0 0.00 0.00 0.00 25 1006.3
20260507121342 81 0 0.0 0.0 0.00 0.00 0.00 27 1006.7
20260507111416 78 0 0.0 0.0 0.00 0.00 0.00 29 1006.9
20260507101448 76 0 0.0 0.0 0.00 0.00 0.00 29 1007.2
20260507091525 72 0 0.0 0.0 0.00 0.00 0.00 36 1007.7
20260507081616 70 0 0.0 0.0 0.00 0.00 0.00 41 1008.2
20260507071633 61 0 0.0 0.0 0.00 0.00 0.00 53 1008.5
20260507061710 58 0 0.0 0.0 0.00 0.00 0.00 58 1008.9
20260507051746 55 0 0.0 0.0 0.00 0.00 0.00 62 1008.7
20260507041826 53 0 0.0 0.0 0.00 0.00 0.00 66 1008.0
20260507031911 52 0 0.0 0.0 0.00 0.00 0.00 66 1007.4
20260507021956 54 0 0.0 0.0 0.00 0.00 0.00 63 1007.0
20260507012042 55 0 0.0 0.0 0.00 0.00 0.00 61 1006.7
20260507002129 56 0 0.0 0.0 0.00 0.00 0.00 56 1006.7
20260506232214 58 0 0.0 0.0 0.00 0.00 0.00 51 1006.6
20260506222257 59 0 0.0 0.0 0.00 0.00 0.00 49 1006.7
20260506212347 60 0 0.0 0.0 0.00 0.00 0.00 50 1006.9
20260506202429 61 0 0.0 0.0 0.00 0.00 0.00 46 1006.6
20260506192517 64 0 0.0 0.0 0.00 0.00 0.00 38 1005.8
20260506182604 65 0 0.0 0.0 0.00 0.00 0.00 39 1005.4
20260506172648 67 0 0.0 0.0 0.00 0.00 0.00 36 1004.7
20260506162742 70 0 0.0 0.0 0.00 0.00 0.00 34 1004.1